SAS39K ENHD-ENGM

Flight info

Callsign SAS39K
Flight time 0h 36m
Altitude 29000
Route ODINU1K ODINU DCT BOBGA DCT ADOPI ADOPI3L
Aircraft E195/M-SDE3GILORVW/S

Departure

Time 2026-05-05 19:32
Airport Haugesund Airport, Karmøy (ENHD)

Arrival

Time 2026-05-05 20:09
Airport Oslo-Gardermoen International Airport (ENGM)
Time Latitude Longitude Altitude Speed Heading
2026-05-05 19:15 59.34448 5.21549 69 ft 0 kts 44°
2026-05-05 19:25 59.34441 5.21536 70 ft 2 kts 44°
2026-05-05 19:25 59.34431 5.21516 70 ft 2 kts 44°
2026-05-05 19:26 59.34422 5.21491 70 ft 2 kts 79°
2026-05-05 19:26 59.34423 5.21462 71 ft 2 kts 110°
2026-05-05 19:26 59.34428 5.21443 71 ft 0 kts 132°
2026-05-05 19:26 59.34433 5.21433 71 ft 0 kts 136°
2026-05-05 19:28 59.34433 5.21435 71 ft 0 kts 134°
2026-05-05 19:28 59.34424 5.21456 71 ft 3 kts 130°
2026-05-05 19:28 59.34404 5.21496 70 ft 5 kts 135°
2026-05-05 19:28 59.34376 5.21547 71 ft 5 kts 137°
2026-05-05 19:29 59.34342 5.21579 71 ft 5 kts 182°
2026-05-05 19:29 59.34305 5.21537 72 ft 7 kts 223°
2026-05-05 19:29 59.34254 5.21464 73 ft 11 kts 193°
2026-05-05 19:29 59.34173 5.21544 75 ft 14 kts 137°
2026-05-05 19:30 59.34154 5.21580 75 ft 7 kts 132°
2026-05-05 19:30 59.34092 5.21711 77 ft 19 kts 134°
2026-05-05 19:30 59.33976 5.21946 82 ft 29 kts 133°
2026-05-05 19:30 59.33854 5.22184 88 ft 20 kts 139°
2026-05-05 19:31 59.33758 5.22348 93 ft 15 kts 130°
2026-05-05 19:31 59.33772 5.22376 93 ft 6 kts 301°
2026-05-05 19:31 59.33804 5.22286 91 ft 9 kts 310°
2026-05-05 19:31 59.33913 5.22066 84 ft 58 kts 314°
2026-05-05 19:32 59.34407 5.21074 74 ft 143 kts 314°
2026-05-05 19:32 59.35196 5.19463 509 ft 179 kts 313°
2026-05-05 19:32 59.36292 5.18262 1345 ft 197 kts 352°
2026-05-05 19:32 59.37546 5.19024 2419 ft 202 kts 39°
2026-05-05 19:33 59.38202 5.21506 3325 ft 222 kts 79°
2026-05-05 19:33 59.38408 5.24605 3956 ft 245 kts 75°
2026-05-05 19:33 59.38856 5.27953 4720 ft 263 kts 69°
2026-05-05 19:33 59.39467 5.31358 5745 ft 270 kts 65°
2026-05-05 19:34 59.40161 5.34746 6892 ft 271 kts 63°
2026-05-05 19:34 59.40898 5.38138 7961 ft 275 kts 63°
2026-05-05 19:34 59.41663 5.41556 8942 ft 281 kts 62°
2026-05-05 19:35 59.43282 5.48684 10749 ft 296 kts 61°
2026-05-05 19:35 59.44128 5.52397 11517 ft 307 kts 62°
2026-05-05 19:35 59.45022 5.56321 12207 ft 322 kts 62°
2026-05-05 19:35 59.45949 5.60396 12951 ft 334 kts 62°
2026-05-05 19:36 59.46897 5.64575 13814 ft 341 kts 62°
2026-05-05 19:36 59.47853 5.68791 14695 ft 346 kts 62°
2026-05-05 19:36 59.48607 5.72126 15311 ft 352 kts 62°
2026-05-05 19:36 59.49603 5.76535 16043 ft 361 kts 62°
2026-05-05 19:37 59.50613 5.81019 16756 ft 369 kts 62°
2026-05-05 19:37 59.51663 5.85686 17472 ft 377 kts 62°
2026-05-05 19:37 59.52729 5.90434 18164 ft 386 kts 62°
2026-05-05 19:37 59.53812 5.95271 18836 ft 393 kts 62°
2026-05-05 19:38 59.54927 6.00265 19582 ft 399 kts 62°
2026-05-05 19:38 59.56041 6.05263 20294 ft 405 kts 62°
2026-05-05 19:38 59.57175 6.10365 20960 ft 412 kts 62°
2026-05-05 19:38 59.58327 6.15557 21617 ft 418 kts 62°
2026-05-05 19:39 59.59499 6.20858 22259 ft 425 kts 62°
2026-05-05 19:39 59.60679 6.26204 22860 ft 432 kts 62°
2026-05-05 19:39 59.61873 6.31631 23451 ft 438 kts 62°
2026-05-05 19:39 59.63090 6.37174 24015 ft 445 kts 62°
2026-05-05 19:40 59.64332 6.42850 24590 ft 451 kts 62°
2026-05-05 19:40 59.65573 6.48493 25232 ft 453 kts 60°
2026-05-05 19:40 59.66980 6.54099 25857 ft 456 kts 58°
2026-05-05 19:40 59.68367 6.59695 26475 ft 461 kts 59°
2026-05-05 19:41 59.69772 6.65422 27089 ft 464 kts 60°
2026-05-05 19:41 59.71178 6.71184 27630 ft 469 kts 60°
2026-05-05 19:41 59.72618 6.77105 28172 ft 474 kts 60°
2026-05-05 19:41 59.74046 6.82993 28731 ft 476 kts 60°
2026-05-05 19:42 59.75475 6.88898 28862 ft 485 kts 60°
2026-05-05 19:42 59.76972 6.95101 28856 ft 502 kts 60°
2026-05-05 19:42 59.78501 7.01460 28810 ft 511 kts 60°
2026-05-05 19:43 59.81533 7.14125 28803 ft 509 kts 60°
2026-05-05 19:43 59.84557 7.26824 28821 ft 510 kts 60°
2026-05-05 19:44 59.87588 7.39631 28830 ft 509 kts 61°
2026-05-05 19:44 59.90570 7.52304 28841 ft 510 kts 60°
2026-05-05 19:45 59.93582 7.65180 28831 ft 511 kts 62°
2026-05-05 19:45 59.96556 7.77973 28814 ft 511 kts 62°
2026-05-05 19:46 59.99501 7.90718 28799 ft 499 kts 61°
2026-05-05 19:46 60.02390 8.03286 28803 ft 499 kts 61°
2026-05-05 19:46 60.03845 8.09645 28615 ft 502 kts 62°
2026-05-05 19:47 60.05289 8.15982 28063 ft 498 kts 62°
2026-05-05 19:47 60.06697 8.22171 27519 ft 493 kts 61°
2026-05-05 19:47 60.08107 8.28392 26972 ft 487 kts 61°
2026-05-05 19:47 60.09489 8.34508 26442 ft 482 kts 61°
2026-05-05 19:48 60.10871 8.40636 25911 ft 478 kts 61°
2026-05-05 19:48 60.12228 8.46673 25384 ft 473 kts 60°
2026-05-05 19:48 60.13570 8.52658 24874 ft 471 kts 60°
2026-05-05 19:48 60.14898 8.58596 24367 ft 468 kts 60°
2026-05-05 19:49 60.16214 8.64501 23891 ft 464 kts 60°
2026-05-05 19:49 60.17524 8.70394 23387 ft 460 kts 62°
2026-05-05 19:49 60.18803 8.76168 22917 ft 452 kts 62°
2026-05-05 19:49 60.20062 8.81864 22386 ft 443 kts 62°
2026-05-05 19:50 60.21283 8.87399 21933 ft 434 kts 62°
2026-05-05 19:50 60.22496 8.92917 21448 ft 425 kts 62°
2026-05-05 19:50 60.23671 8.98278 20994 ft 416 kts 62°
2026-05-05 19:50 60.24818 9.03518 20541 ft 407 kts 62°
2026-05-05 19:51 60.25935 9.08637 20103 ft 398 kts 62°
2026-05-05 19:51 60.27043 9.13725 19660 ft 390 kts 62°
2026-05-05 19:51 60.28111 9.18645 19208 ft 382 kts 62°
2026-05-05 19:51 60.29148 9.23429 18802 ft 373 kts 62°
2026-05-05 19:52 60.30177 9.28191 18367 ft 365 kts 62°
2026-05-05 19:52 60.31174 9.32812 17969 ft 357 kts 62°
2026-05-05 19:52 60.31953 9.37462 17549 ft 354 kts 81°
2026-05-05 19:52 60.31824 9.42389 17161 ft 349 kts 98°
2026-05-05 19:53 60.31387 9.47175 16753 ft 344 kts 100°
2026-05-05 19:53 60.30927 9.51768 16369 ft 340 kts 101°
2026-05-05 19:53 60.30438 9.56457 16002 ft 338 kts 101°
2026-05-05 19:53 60.29951 9.61063 15651 ft 336 kts 101°
2026-05-05 19:54 60.29463 9.65634 15287 ft 333 kts 102°
2026-05-05 19:54 60.28981 9.70130 14940 ft 328 kts 102°
2026-05-05 19:54 60.28498 9.74606 14599 ft 326 kts 101°
2026-05-05 19:54 60.28020 9.79033 14234 ft 322 kts 101°
2026-05-05 19:55 60.27539 9.83461 13894 ft 319 kts 102°
2026-05-05 19:55 60.26737 9.87538 13539 ft 316 kts 124°
2026-05-05 19:55 60.25474 9.91154 13197 ft 314 kts 126°
2026-05-05 19:55 60.24209 9.94672 12851 ft 311 kts 127°
2026-05-05 19:56 60.22948 9.98153 12517 ft 308 kts 126°
2026-05-05 19:56 60.21711 10.01559 12157 ft 301 kts 127°
2026-05-05 19:56 60.20497 10.04892 11835 ft 294 kts 126°
2026-05-05 19:56 60.19302 10.08167 11533 ft 288 kts 126°
2026-05-05 19:57 60.18116 10.11413 11196 ft 283 kts 126°
2026-05-05 19:57 60.16969 10.14548 10891 ft 277 kts 126°
2026-05-05 19:57 60.15842 10.17620 10591 ft 272 kts 126°
2026-05-05 19:57 60.14739 10.20628 10288 ft 266 kts 126°
2026-05-05 19:58 60.13645 10.23604 9991 ft 261 kts 126°
2026-05-05 19:58 60.12670 10.26566 9760 ft 253 kts 118°
2026-05-05 19:58 60.11808 10.29618 9765 ft 251 kts 118°
2026-05-05 19:58 60.10942 10.32681 9768 ft 253 kts 118°
2026-05-05 19:59 60.10067 10.35775 9654 ft 258 kts 118°
2026-05-05 19:59 60.09182 10.38899 9399 ft 257 kts 118°
2026-05-05 19:59 60.08306 10.41987 9119 ft 255 kts 118°
2026-05-05 19:59 60.07444 10.45022 8837 ft 253 kts 118°
2026-05-05 20:00 60.06573 10.48086 8561 ft 251 kts 118°
2026-05-05 20:00 60.05711 10.51111 8288 ft 251 kts 118°
2026-05-05 20:00 60.04863 10.54085 8028 ft 249 kts 118°
2026-05-05 20:00 60.04004 10.57095 7751 ft 247 kts 118°
2026-05-05 20:01 60.03147 10.60093 7478 ft 245 kts 118°
2026-05-05 20:01 60.02307 10.63026 7209 ft 243 kts 118°
2026-05-05 20:01 60.01473 10.65938 6948 ft 242 kts 119°
2026-05-05 20:01 60.00636 10.68855 6697 ft 241 kts 118°
2026-05-05 20:02 59.99799 10.71770 6418 ft 241 kts 118°
2026-05-05 20:02 59.98974 10.74638 6154 ft 241 kts 118°
2026-05-05 20:02 59.98137 10.77544 5903 ft 240 kts 119°
2026-05-05 20:02 59.97577 10.80590 5632 ft 235 kts 88°
2026-05-05 20:03 59.97827 10.83728 5411 ft 227 kts 75°
2026-05-05 20:03 59.98192 10.86771 5147 ft 224 kts 75°
2026-05-05 20:03 59.98560 10.89794 4886 ft 222 kts 75°
2026-05-05 20:03 59.98920 10.92732 4731 ft 219 kts 75°
2026-05-05 20:04 59.99452 10.95504 4427 ft 215 kts 49°
2026-05-05 20:04 60.00688 10.97042 4175 ft 206 kts 18°
2026-05-05 20:04 60.02031 10.97895 3922 ft 205 kts 17°
2026-05-05 20:04 60.03400 10.98710 3670 ft 205 kts 16°
2026-05-05 20:05 60.04783 10.99512 3554 ft 209 kts 16°
2026-05-05 20:05 60.06145 11.00294 3256 ft 198 kts 16°
2026-05-05 20:05 60.07379 11.01000 3038 ft 175 kts 16°
2026-05-05 20:05 60.08481 11.01631 2835 ft 156 kts 15°
2026-05-05 20:06 60.09474 11.02199 2577 ft 143 kts 15°
2026-05-05 20:06 60.10407 11.02733 2368 ft 135 kts 15°
2026-05-05 20:06 60.11307 11.03248 2200 ft 137 kts 15°
2026-05-05 20:06 60.12239 11.03781 2020 ft 139 kts 15°
2026-05-05 20:07 60.13171 11.04316 1831 ft 140 kts 16°
2026-05-05 20:07 60.14099 11.04848 1638 ft 139 kts 15°
2026-05-05 20:07 60.15025 11.05381 1428 ft 138 kts 16°
2026-05-05 20:07 60.15945 11.05907 1225 ft 136 kts 15°
2026-05-05 20:08 60.16858 11.06439 1006 ft 135 kts 15°
2026-05-05 20:08 60.17746 11.06938 839 ft 133 kts 15°
2026-05-05 20:08 60.18637 11.07453 708 ft 133 kts 15°
2026-05-05 20:08 60.19440 11.07915 687 ft 100 kts 15°
2026-05-05 20:09 60.19962 11.08214 686 ft 58 kts 16°
2026-05-05 20:09 60.20205 11.08436 686 ft 23 kts 43°
2026-05-05 20:09 60.20246 11.08620 686 ft 10 kts 101°
2026-05-05 20:09 60.20223 11.08726 686 ft 4 kts 152°
2026-05-05 20:10 60.20192 11.08745 686 ft 5 kts 161°
2026-05-05 20:10 60.20153 11.08800 686 ft 8 kts 131°
2026-05-05 20:10 60.20086 11.08848 686 ft 12 kts 187°
2026-05-05 20:10 60.19989 11.08798 686 ft 16 kts 196°
2026-05-05 20:11 60.19868 11.08725 686 ft 19 kts 196°
2026-05-05 20:11 60.19725 11.08643 686 ft 22 kts 196°
2026-05-05 20:11 60.19601 11.08572 686 ft 12 kts 195°
2026-05-05 20:11 60.19527 11.08614 686 ft 12 kts 112°
2026-05-05 20:12 60.19499 11.08792 686 ft 14 kts 105°
2026-05-05 20:12 60.19471 11.08990 686 ft 14 kts 107°
2026-05-05 20:12 60.19451 11.09133 686 ft 6 kts 100°
2026-05-05 20:12 60.19481 11.09186 686 ft 7 kts 15°
2026-05-05 20:13 60.19497 11.09195 686 ft 1 kts 15°
2026-05-05 20:13 60.19499 11.09197 686 ft 0 kts 16°